Regional Weather Roundup
Issued by NWS New Orleans/Baton Rouge, LA

Home | Current Version | Previous Version | Graphics & Text | Print | Product List | Glossary On
Versions: 1 2 3 4 5 6 7 8 9 10 11 12 13 14 15 16 17 18 19 20 21 22 23 24 25 26 27 28 29 30 31 32 33 34 35 36 37 38 39 40 41 42 43 44 45 46 47 48 49 50
898
ASUS44 KLIX 252105
RWRLIX
NEW ORLEANS REGIONAL WEATHER ROUNDUP
NATIONAL WEATHER SERVICE NEW ORLEANS LA
400 PM CDT SAT OCT 25 2014

NOTE: "FAIR" INDICATES FEW OR NO CLOUDS BELOW 12,000 FEET WITH NO
      SIGNIFICANT WEATHER AND/OR OBSTRUCTIONS TO VISIBILITY.
      SKY/WX - SKY CONDITION AND SIGNIFICANT WEATHER.
      TMP - AIR TEMPERATURE.     DP    - DEWPOINT TEMPERATURE.
      RH  - RELATIVE HUMIDITY.   PRES  - PRESSURE.
      HI  - HEAT INDEX.          WCI   - WIND CHILL INDEX.

*  THESE STATIONS ARE NOT NWS OR FAA STATIONS AND ARE NOT UNDER
   NWS QUALITY CONTROL.

LAZ038-040-048-061>063-065>067-069-252200-
SOUTHEAST LOUISIANA

CITY           SKY/WX    TMP DP  RH WIND       PRES   REMARKS
N.O. AUDUBON     N/A     78  57  47 MISG        N/A
N.O. INTL ARPT SUNNY     78  54  43 VRB6      30.08F
N.O. LAKEFRONT SUNNY     74  57  55 W9        30.08F
N.O. DOWNTOWN*   N/A     79  52  38 NW6       30.08F
SLIDELL        SUNNY     82  54  37 N3        30.06F
BATON ROUGE    SUNNY     81  54  39 W9        30.08F
BOOTHVILLE     SUNNY     73  54  51 N6        30.08F
BELLE CHASSE   SUNNY     79  50  36 VRB3      30.07F
BOGALUSA*        N/A     83  54  37 N9        30.07F
NEW ROADS*       N/A     80  49  34 NW3       30.09F
GONZALES*        N/A     81  51  36 N5        30.07F
HAMMOND*       SUNNY     82  50  32 N7        30.08F
HOUMA*         SUNNY     81  54  39 N7        30.08F
PORT FOURCHON* CLEAR     75  55  50 NE7       30.11F

$$

MSZ070-080>082-252200-
SOUTHERN MISSISSIPPI

CITY           SKY/WX    TMP DP  RH WIND       PRES   REMARKS
MCCOMB         SUNNY     81  54  39 N9        30.08F
GULFPORT       SUNNY     81  55  40 N10       30.04F
BILOXI         SUNNY     80  56  42 N8        30.05F
PASCAGOULA     SUNNY     80  54  40 N8        30.04F

$$

COASTAL OBSERVATIONS
LAKE AND NEARSHORE STATIONS

STATION/POSITION TIME  TEMP    WIND        PRES    WAVE
                       AIR SEA DIR/SP/G            HT/PER
                 (UTC) (F)     (DEG/KT/KT) (MB)    (FT/S)
PASCAGOULA       2100   79     350/  8/ 12 1016.9
WAVELAND YACHT   2100   74     220/  5/  7 1017.1
GRAND ISLE       2100   76 72   30/  1/  3 1019.1
SOUTHWEST PASS   2100   78 80              1018.6
NEW CANAL        2100   73 71  260/  4/  5 1019.0
SHELL BEACH      2100   73 67   CALM  /  2 1018.2

OFFSHORE STATIONS

STATION/POSITION TIME  TEMP    WIND        PRES    WAVE
                       AIR SEA DIR/SP/G            HT/PER
                 (UTC) (F)     (DEG/KT/KT) (MB)    (FT/S)
64 S DAUPHIN ISL 2028   72 79  360/ 14/ 17 1018.0    3/ 5

$$




USA.gov is the U.S. government's official web portal to all federal, state and local government web resources and services.